Location: Drocourt
(49.0571°N, 1.7669°E)
Time: 19:56:39
(UTC+00:00)

Transit 4A - Pass Details

Date: 21 April 2024
Orbit: 871 x 971 km, 66.8° (Epoch: 18 May)

Event Time Altitude Azimuth Distance (km) Brightness Sun altitude
Rises 17:05:30 0° 309° (NW) 3,486 11.7 16.7°
Reaches altitude 10° 17:09:27 10° 335° (NNW) 2,536 10.6 16.1°
Maximum altitude 17:12:19 14° 5° (N) 2,274 10.0 15.6°
Drops below altitude 10° 17:15:12 10° 35° (NE) 2,529 9.9 15.1°
Sets 17:19:08 0° 61° (ENE) 3,469 10.4 14.5°
